Columbus AFB, MS

12:54 PM CDT on September 20, 2017 (GMT -0500)
Columbus Air Force Base

Weather History for KCBM - August, 2013

Change the Weather History Date:

Thursday, August 8, 2013

  Actual Average Record
Temperature  
Mean Temperature 83 °F -  
Max Temperature 93 °F 88 °F 100 °F (2006)
Min Temperature 73 °F 69 °F 67 °F (2008)
Cooling Degree Days 18    
Growing Degree Days 33 (Base 50)    
Moisture  
Dew Point 75 °F    
Average Humidity 77    
Maximum Humidity 100    
Minimum Humidity 57    
Precipitation  
Precipitation 0.00 in - - ()
Sea Level Pressure  
Sea Level Pressure 29.95 in    
Wind  
Wind Speed 3 mph (SSE)    
Max Wind Speed 8 mph    
Max Gust Speed -    
Visibility 10 miles    
Events Thunderstorm    
Averages and records for this station are not official NWS values.
T = Trace of Precipitation, MM = Missing Value Source: NWS Daily Summary

Daily Weather History Graph

Daily Weather History Graph

Search for Another Location

Airport or City:

Trip Planner

Search our weather history database for the weather conditions in past years. The results will help you decide how hot, cold, wet, or windy it might be!

Date:

Astronomy

Aug. 08, 2013 Rise Set
Actual Time 6:11 AM CDT 7:47 PM CDT
Civil Twilight 5:44 AM CDT 8:13 PM CDT
Nautical Twilight 5:12 AM CDT 8:45 PM CDT
Astronomical Twilight 4:38 AM CDT 9:19 PM CDT
Moon 7:49 AM CDT (8/8) 8:35 PM CDT (8/8)
Length of Visible Light 14h 29m
Length of Day
13h 36m
Waxing Crescent, 3% of the Moon is Illuminated
Aug 8
Waxing Crescent
Aug 14
First Quarter
Aug 20
Full
Aug 28
Last Quarter
Sep 5
New

Hourly Weather History & Observations

Time (CDT) Temp. Heat Index Dew Point Humidity Pressure Visibility Wind Dir Wind Speed Gust Speed Precip Events Conditions
12:58 AM 77.5 °F - 76.3 °F 96% 29.96 in 10.0 mi ESE 5.8 mph - N/A   Clear
1:58 AM 76.8 °F - 76.5 °F 99% 29.95 in 10.0 mi SE 2.3 mph - N/A   Clear
2:58 AM 75.9 °F - 75.9 °F 100% 29.96 in 10.0 mi Calm Calm - N/A   Partly Cloudy
3:58 AM 75.9 °F - 75.9 °F 100% 29.94 in 10.0 mi ESE 5.8 mph - N/A   Partly Cloudy
4:58 AM 75.4 °F - 75.0 °F 99% 29.94 in 10.0 mi SE 2.3 mph - N/A   Clear
5:58 AM 73.9 °F - 73.9 °F 100% 29.94 in 10.0 mi SE 4.6 mph - N/A   Clear
6:58 AM 75.7 °F - 74.5 °F 96% 29.94 in 10.0 mi South 5.8 mph - N/A   Clear
7:58 AM 79.0 °F - 74.1 °F 85% 29.97 in 10.0 mi SSE 4.6 mph - N/A   Clear
8:21 AM 78.8 °F - 75.2 °F 89% 29.97 in 10.0 mi Variable 2.3 mph - N/A   Mostly Cloudy
8:58 AM 82.2 °F 89.1 °F 75.0 °F 79% 29.99 in 10.0 mi SSW 5.8 mph - N/A   Scattered Clouds
9:58 AM 85.5 °F 94.6 °F 75.6 °F 72% 29.99 in 10.0 mi Calm Calm - N/A   Clear
10:58 AM 86.2 °F 96.9 °F 76.6 °F 73% 29.99 in 10.0 mi Calm Calm - N/A   Scattered Clouds
11:58 AM 88.5 °F 101.1 °F 77.0 °F 69% 29.99 in 10.0 mi Calm Calm - N/A   Scattered Clouds
12:28 PM 89.6 °F 102.2 °F 77.0 °F 66% 29.98 in 10.0 mi Calm Calm - N/A   Mostly Cloudy
12:33 PM 89.6 °F 102.2 °F 77.0 °F 66% 29.98 in 10.0 mi Calm Calm - N/A   Mostly Cloudy
12:58 PM 90.5 °F 102.7 °F 76.5 °F 63% 29.97 in 10.0 mi Calm Calm - N/A   Mostly Cloudy
1:03 PM 91.4 °F 105.1 °F 77.0 °F 63% 29.96 in 10.0 mi Variable 2.3 mph - N/A   Scattered Clouds
1:58 PM 90.9 °F 103.7 °F 76.6 °F 63% 29.94 in 10.0 mi Calm Calm - N/A   Scattered Clouds
2:08 PM 89.6 °F 102.2 °F 77.0 °F 66% 29.93 in 10.0 mi Variable 3.5 mph - N/A   Mostly Cloudy
2:38 PM 93.2 °F 107.2 °F 77.0 °F 59% 29.92 in 10.0 mi SE 4.6 mph - N/A   Scattered Clouds
2:58 PM 92.5 °F 106.0 °F 77.0 °F 60% 29.92 in 10.0 mi SSW 5.8 mph - N/A   Clear
3:58 PM 92.7 °F 105.0 °F 75.9 °F 58% 29.91 in 10.0 mi SSE 6.9 mph - N/A   Clear
4:58 PM 92.5 °F 103.9 °F 75.2 °F 57% 29.90 in 10.0 mi SSE 6.9 mph - N/A   Clear
5:58 PM 87.6 °F 99.2 °F 76.6 °F 70% 29.93 in 10.0 mi NNW 1.2 mph - N/A Thunderstorm Clear
6:58 PM 79.3 °F - 69.1 °F 71% 29.95 in 10.0 mi WSW 2.3 mph - N/A   Partly Cloudy
7:58 PM 78.8 °F - 71.6 °F 78% 29.94 in 10.0 mi ESE 6.9 mph - N/A   Partly Cloudy
8:55 PM 79.7 °F - 71.1 °F 75% 29.95 in 10.0 mi ESE 8.1 mph - 0.00 in   Mostly Cloudy
9:58 PM 79.2 °F - 72.9 °F 81% 29.96 in 10.0 mi SSE 4.6 mph - N/A   Scattered Clouds